Date String (YYYY-MM-DD hh:mm:ss) UTC,Instrument flags,Ambient pressure (hPa),Sample flow (lpm),Bypass flow (lpm),Sample temperature (°C),Ambient temperature (°C),ASC tube jacket temperature (°C),LED temperature (°C),Box temperature (°C),Sample RH (%),Span deviation,Mass concentration (μg/m³),Mass concentration (μg/m³),Mass concentration (μg/m³)
DateTimeUTC,F1_M11,P_M11,Q1_M11,Q2_M11,T1_M11,T2_M11,T3_M11,T4_M11,T5_M11,U1_M11,ZSPAN_M11,X0_M11,X2_M11,X1_M11
2022-07-06 13:00:00,,0829.7,5.00,0.00,32.0,29.3,00.0,40.2,32.8,34.6,-001.1,0015.12,0006.53,0005.39
2022-07-06 13:01:00,,0829.7,5.01,0.00,31.9,29.3,00.0,40.2,32.8,34.6,-001.3,0015.63,0006.57,0005.41
2022-07-06 13:02:00,,0829.7,5.00,0.00,31.9,28.5,00.0,40.1,32.7,34.7,-001.4,0016.34,0006.60,0005.43
2022-07-06 13:03:00,,0829.7,4.99,0.00,31.9,28.0,00.0,40.1,32.6,34.9,-001.1,0016.18,0006.56,0005.44
2022-07-06 13:04:00,,0829.6,4.99,0.00,31.8,27.8,00.0,40.1,32.5,35.2,-001.3,0015.90,0006.57,0005.45
2022-07-06 13:05:00,,0829.6,5.01,0.00,31.8,27.9,00.0,40.1,32.5,35.1,-001.9,0015.17,0006.53,0005.44
2022-07-06 13:06:00,,0829.6,4.99,0.00,32.0,28.0,00.0,40.0,32.6,34.6,-002.4,0013.25,0006.49,0005.41
2022-07-06 13:07:00,,0829.6,5.00,0.00,32.1,28.1,00.0,40.0,32.6,34.4,-002.6,0012.39,0006.49,0005.39
2022-07-06 13:08:00,,0829.7,4.99,0.00,32.2,28.3,00.0,40.0,32.5,34.3,-003.1,0012.37,0006.48,0005.38
2022-07-06 13:09:00,,0829.7,5.01,0.00,32.2,28.4,00.0,40.1,32.5,34.3,-002.9,0012.42,0006.51,0005.38
2022-07-06 13:10:00,,0829.7,5.00,0.00,32.1,28.5,00.0,40.1,32.5,34.4,-002.6,0012.45,0006.54,0005.38
2022-07-06 13:11:00,,0829.8,5.00,0.00,32.1,28.7,00.0,40.1,32.5,34.6,-002.8,0012.81,0006.54,0005.37
2022-07-06 13:12:00,,0829.8,5.00,0.00,32.1,28.8,00.0,40.2,32.6,34.8,-002.3,0012.67,0006.50,0005.35
2022-07-06 13:13:00,,0829.8,4.99,0.00,32.0,28.9,00.0,40.2,32.6,35.2,-002.2,0011.26,0006.43,0005.35
2022-07-06 13:14:00,,0829.8,4.99,0.00,32.2,28.9,00.0,40.2,32.8,35.3,-001.8,0011.15,0006.40,0005.33
2022-07-06 13:15:00,,0829.8,5.00,0.00,32.4,29.0,00.0,40.2,32.9,34.7,-001.2,0011.29,0006.32,0005.27
2022-07-06 13:16:00,,0829.8,4.99,0.00,32.6,29.1,00.0,40.3,33.0,34.3,-000.2,0011.55,0006.26,0005.21
2022-07-06 13:17:00,,0829.8,5.00,0.00,32.7,29.2,00.0,40.3,32.9,34.1,-000.0,0011.80,0006.21,0005.20
2022-07-06 13:18:00,,0829.8,5.00,0.00,32.7,29.2,00.0,40.4,32.9,33.9,0000.3,0012.12,0006.21,0005.20
2022-07-06 13:19:00,,0829.8,5.00,0.00,32.7,29.3,00.0,40.4,32.9,33.9,0000.7,0012.11,0006.22,0005.20
2022-07-06 13:20:00,,0829.8,4.99,0.00,32.7,29.3,00.0,40.5,32.9,33.9,0000.8,0012.18,0006.23,0005.19
2022-07-06 13:21:00,,0829.8,4.99,0.00,32.6,29.4,00.0,40.5,32.9,33.9,0001.3,0012.41,0006.24,0005.18
2022-07-06 13:22:00,,0829.8,4.99,0.00,32.6,29.2,00.0,40.5,32.9,33.9,0001.3,0012.24,0006.25,0005.19
2022-07-06 13:23:00,,0829.8,5.00,0.00,32.6,28.4,00.0,40.5,32.8,33.9,0000.7,0012.46,0006.28,0005.18
2022-07-06 13:24:00,,0829.8,5.00,0.00,32.5,28.0,00.0,40.5,32.7,34.2,0000.6,0013.07,0006.28,0005.16
2022-07-06 13:25:00,,0829.7,4.99,0.00,32.3,27.9,00.0,40.5,32.6,34.6,0000.3,0013.62,0006.28,0005.17
2022-07-06 13:26:00,,0829.7,4.99,0.00,32.2,27.9,00.0,40.4,32.5,34.8,0000.4,0013.75,0006.32,0005.20
2022-07-06 13:27:00,,0829.7,5.00,0.00,32.1,28.0,00.0,40.4,32.5,35.1,0000.4,0013.57,0006.36,0005.23
2022-07-06 13:28:00,,0829.7,5.01,0.00,32.2,28.2,00.0,40.4,32.6,35.0,0000.9,0013.40,0006.39,0005.24
2022-07-06 13:29:00,,0829.8,4.99,0.00,32.3,28.3,00.0,40.4,32.7,34.7,0001.1,0012.95,0006.32,0005.21
2022-07-06 13:30:00,,0829.8,5.00,0.00,32.4,28.4,00.0,40.4,32.7,34.6,0001.2,0012.90,0006.27,0005.18
2022-07-06 13:31:00,,0829.8,5.00,0.00,32.4,28.6,00.0,40.4,32.7,34.5,0001.2,0012.86,0006.23,0005.16
2022-07-06 13:32:00,,0829.8,5.01,0.00,32.4,28.7,00.0,40.4,32.7,34.7,0000.8,0012.64,0006.20,0005.16
2022-07-06 13:33:00,,0829.8,5.01,0.00,32.4,28.8,00.0,40.4,32.7,34.8,0001.0,0012.38,0006.13,0005.13
2022-07-06 13:34:00,,0829.7,4.98,0.00,32.3,28.9,00.0,40.4,32.7,35.1,0001.1,0012.68,0006.06,0005.12
2022-07-06 13:35:00,,0829.7,5.01,0.00,32.5,29.0,00.0,40.4,32.9,35.0,0001.0,0011.95,0006.04,0005.10
2022-07-06 13:36:00,,0829.8,5.00,0.00,32.7,29.1,00.0,40.5,33.0,34.4,0000.9,0011.30,0005.99,0005.05
2022-07-06 13:37:00,,0829.8,5.01,0.00,32.8,29.1,00.0,40.5,33.0,34.2,0000.7,0010.79,0005.90,0004.99
2022-07-06 13:38:00,,0829.8,5.01,0.00,32.8,29.2,00.0,40.5,33.0,34.3,0000.3,0010.67,0005.82,0004.95
2022-07-06 13:39:00,,0829.8,5.00,0.00,32.8,29.3,00.0,40.6,33.0,34.4,0000.3,0010.76,0005.79,0004.93
2022-07-06 13:40:00,,0829.8,5.00,0.00,32.8,29.3,00.0,40.6,33.0,34.1,-000.1,0010.81,0005.81,0004.93
2022-07-06 13:41:00,,0829.8,5.00,0.00,32.8,29.4,00.0,40.7,33.0,34.1,-000.5,0011.64,0005.87,0004.95
2022-07-06 13:42:00,,0829.8,5.00,0.00,32.7,29.4,00.0,40.7,33.0,34.1,-000.5,0011.62,0005.84,0004.93
2022-07-06 13:43:00,,0829.8,5.00,0.00,32.7,29.4,00.0,40.7,33.0,34.5,-000.6,0011.50,0005.78,0004.90
2022-07-06 13:44:00,,0829.8,4.98,0.00,32.6,29.4,00.0,40.7,33.0,34.6,-000.5,0011.45,0005.76,0004.89
2022-07-06 13:45:00,,0829.7,5.01,0.00,32.6,28.8,00.0,40.7,33.0,34.7,-000.6,0011.68,0005.79,0004.89
2022-07-06 13:46:00,,0829.7,5.01,0.00,32.5,28.0,00.0,40.6,32.8,34.5,-000.7,0011.65,0005.79,0004.88
2022-07-06 13:47:00,,0829.6,4.99,0.00,32.4,27.6,00.0,40.6,32.7,34.8,-001.0,0011.75,0005.83,0004.91
2022-07-06 13:48:00,,0829.8,5.01,0.00,32.3,27.5,00.0,40.5,32.5,35.4,-001.4,0011.85,0005.88,0004.96
2022-07-06 13:49:00,,0829.9,5.00,0.00,32.4,27.6,00.0,40.5,32.6,35.2,-000.9,0011.88,0005.95,0004.98
2022-07-06 13:50:00,,0829.7,4.98,0.00,32.5,27.7,00.0,40.5,32.7,34.6,-000.8,0011.43,0005.89,0004.95
2022-07-06 13:51:00,,0829.7,5.01,0.00,32.6,27.9,00.0,40.4,32.7,34.6,-000.8,0011.25,0005.84,0004.93
2022-07-06 13:52:00,,0829.7,4.98,0.00,32.6,28.1,00.0,40.4,32.6,34.9,-000.5,0010.53,0005.80,0004.91
2022-07-06 13:53:00,,0829.7,5.01,0.00,32.6,28.2,00.0,40.5,32.6,34.8,-001.0,0010.37,0005.83,0004.91
2022-07-06 13:54:00,,0829.7,4.99,0.00,32.6,28.4,00.0,40.5,32.6,34.4,-001.3,0010.47,0005.87,0004.92
2022-07-06 13:55:00,,0829.7,5.01,0.00,32.6,28.5,00.0,40.5,32.7,34.3,-001.5,0010.59,0005.92,0004.94
2022-07-06 13:56:00,,0829.7,5.00,0.00,32.6,28.6,00.0,40.5,32.7,34.3,-001.6,0010.01,0005.92,0004.97
2022-07-06 13:57:00,,0829.7,5.00,0.00,32.5,28.7,00.0,40.5,32.7,34.6,-001.7,0010.13,0005.95,0004.99
2022-07-06 13:58:00,,0829.7,5.00,0.00,32.5,28.8,00.0,40.6,32.7,35.2,-001.7,0010.56,0006.00,0005.02
2022-07-06 13:59:00,,0829.6,5.02,0.00,32.6,28.9,00.0,40.6,32.9,35.0,-001.6,0010.65,0006.07,0005.02
